Skip Page Navigation
NASA JPL Caltech
NASA Logo - Jet Propulsion Laboratory + View the NASA Portal
+ Center for Near-Earth Object Studies
JPL Home Earth Solar System Stars & Galaxies Technology
JPL Solar System Dynamics
BODIES ORBITS EPHEMERIDES TOOLS PHYSICAL DATA DISCOVERY FAQ SITE MAP
JPL Small-Body Database Browser
Search: [ help ]  
226654 (2004 FV134)
Classification: Main-belt Asteroid          SPK-ID: 2226654
Ephemeris | Orbit Diagram | Orbital Elements | Mission Design | Physical Parameters | Discovery Circumstances ]

[ show orbit diagram ]
Orbital Elements at Epoch 2459200.5 (2020-Dec-17.0) TDB
Reference: JPL 13 (heliocentric ecliptic J2000)
 Element Value Uncertainty (1-sigma)   Units 
e .1930662382324731 4.1375e-08  
a 2.395754918057617 1.2136e-08 au
q 1.933215528301286 9.725e-08 au
i 4.063763857066518 4.238e-06 deg
node 314.5351507017543 7.3885e-05 deg
peri 293.7143017072566 7.51e-05 deg
M 147.9018812843894 1.2297e-05 deg
tp 2458644.040954063404
(2019-Jun-09.54095406)
4.651e-05 TDB
period 1354.446980643769
3.71
1.0292e-05
2.818e-08
d
yr
n .2657911347913314 2.0196e-09 deg/d
Q 2.858294307813948 1.4479e-08 au
  Orbit Determination Parameters
   # obs. used (total)      307  
   data-arc span      7635 days (20.90 yr)  
   first obs. used      2000-01-12  
   last obs. used      2020-12-07  
   planetary ephem.      DE441  
   SB-pert. ephem.      SB441-N16  
   condition code      0  
   norm. resid. RMS      .58345  
   source      ORB  
   producer      Otto Matic  
   solution date      2021-Apr-14 00:36:43  

Additional Information
 Earth MOID = .922198 au 
 Jupiter MOID = 2.19624 au 
 T_jup = 3.500 
[ show covariance matrix ]

Ephemeris | Orbit Diagram | Orbital Elements | Mission Design | Physical Parameters | Discovery Circumstances ]

Physical Parameter Table
Parameter Symbol Value Units Sigma Reference Notes
absolute magnitude H 16.83   n/a MPCxxxxx  

226654 (2004 FV134)          Discovered 2004-Mar-26 by LINEAR at Socorro
Reference: 20091202/Numbers.arcLast Updated: 2009-12-04

Alternate Designations
 2004 FV134 = 2001 SM85 
Ephemeris | Orbit Diagram | Orbital Elements | Mission Design | Physical Parameters | Discovery Circumstances ]
ABOUT SSD CREDITS/AWARDS PRIVACY/COPYRIGHT GLOSSARY LINKS
FirstGov 2021-May-15 19:06 UT
(server date/time)  
NASA Home Page
Site Manager:   Ryan S. Park
Webmaster  Alan B. Chamberlin